SWA3081 KISP-KBWI

Flight info

Callsign SWA3081
Flight time N/A
Altitude 36000
Route BEADS EMJAY Q167 ZIZZI KNUKK ATR LAFLN MIIDY3
Aircraft B738/M-SDE2E3FGHIRWXY/LB1

Departure

Time 2026-04-28 17:12
Airport Long Island MacArthur Airport (KISP)

Arrival

Time N/A
Airport Baltimore/Washington International Thurgood Marshall Airport (KBWI)
Time Latitude Longitude Altitude Speed Heading
2026-04-28 16:54 40.79044 -73.09579 93 ft 0 kts 180°
2026-04-28 17:00 40.79100 -73.09578 93 ft 0 kts 180°
2026-04-28 17:01 40.79108 -73.09596 92 ft 0 kts 86°
2026-04-28 17:06 40.79120 -73.09557 94 ft 6 kts 50°
2026-04-28 17:06 40.79182 -73.09478 91 ft 6 kts 44°
2026-04-28 17:07 40.79222 -73.09451 91 ft 9 kts
2026-04-28 17:07 40.79290 -73.09470 93 ft 10 kts 359°
2026-04-28 17:07 40.79373 -73.09469 94 ft 14 kts
2026-04-28 17:07 40.79464 -73.09469 98 ft 11 kts
2026-04-28 17:08 40.79515 -73.09469 100 ft 6 kts
2026-04-28 17:08 40.79557 -73.09469 101 ft 8 kts
2026-04-28 17:08 40.79648 -73.09468 101 ft 15 kts
2026-04-28 17:08 40.79747 -73.09470 102 ft 14 kts 359°
2026-04-28 17:09 40.79842 -73.09473 103 ft 13 kts 359°
2026-04-28 17:09 40.79933 -73.09471 104 ft 13 kts
2026-04-28 17:09 40.80022 -73.09470 105 ft 13 kts 360°
2026-04-28 17:09 40.80095 -73.09420 106 ft 12 kts 44°
2026-04-28 17:10 40.80168 -73.09405 107 ft 12 kts 319°
2026-04-28 17:10 40.80200 -73.09460 106 ft 5 kts 307°
2026-04-28 17:10 40.80197 -73.09499 108 ft 5 kts 229°
2026-04-28 17:10 40.80194 -73.09503 107 ft 0 kts 226°
2026-04-28 17:11 40.80192 -73.09506 108 ft 3 kts 226°
2026-04-28 17:11 40.80050 -73.09689 106 ft 65 kts 224°
2026-04-28 17:11 40.79561 -73.10328 102 ft 131 kts 225°
2026-04-28 17:11 40.78797 -73.11335 231 ft 170 kts 226°
2026-04-28 17:12 40.77976 -73.12467 947 ft 173 kts 226°
2026-04-28 17:12 40.77141 -73.13624 1673 ft 181 kts 226°
2026-04-28 17:12 40.76202 -73.14912 2029 ft 210 kts 226°
2026-04-28 17:12 40.75121 -73.16387 2265 ft 237 kts 226°
2026-04-28 17:13 40.73934 -73.18007 2684 ft 254 kts 226°
2026-04-28 17:13 40.72679 -73.19718 2764 ft 265 kts 225°
2026-04-28 17:13 40.71395 -73.21455 2765 ft 263 kts 226°
2026-04-28 17:13 40.70107 -73.23162 2790 ft 263 kts 217°
2026-04-28 17:14 40.68423 -73.23986 2816 ft 259 kts 185°
2026-04-28 17:14 40.66636 -73.24094 3082 ft 258 kts 182°
2026-04-28 17:14 40.64811 -73.24175 3873 ft 265 kts 182°
2026-04-28 17:14 40.62963 -73.24244 4925 ft 266 kts 182°
2026-04-28 17:15 40.61099 -73.24309 5912 ft 270 kts 182°
2026-04-28 17:15 40.59209 -73.24375 6876 ft 273 kts 182°
2026-04-28 17:15 40.57319 -73.24443 7783 ft 277 kts 182°
2026-04-28 17:15 40.55377 -73.24512 8679 ft 281 kts 182°
2026-04-28 17:16 40.53408 -73.24584 9555 ft 285 kts 182°
2026-04-28 17:16 40.51406 -73.24657 10286 ft 295 kts 182°
2026-04-28 17:16 40.49258 -73.24736 10514 ft 322 kts 182°
2026-04-28 17:16 40.46930 -73.24822 10724 ft 347 kts 182°
2026-04-28 17:17 40.44434 -73.24914 10995 ft 367 kts 182°
2026-04-28 17:17 40.41849 -73.25009 11612 ft 375 kts 182°
2026-04-28 17:17 40.39227 -73.25105 12371 ft 378 kts 182°
2026-04-28 17:17 40.36620 -73.25200 13118 ft 382 kts 182°
2026-04-28 17:18 40.33951 -73.25298 13828 ft 386 kts 182°
2026-04-28 17:18 40.31249 -73.25397 14542 ft 390 kts 182°
2026-04-28 17:18 40.28522 -73.25497 15270 ft 394 kts 182°
2026-04-28 17:18 40.25767 -73.25598 15994 ft 398 kts 182°